TimeEST,TemperatureF,Dew PointF,Humidity,Sea Level PressureIn,VisibilityMPH,Wind Direction,Wind SpeedMPH,Gust SpeedMPH,PrecipitationIn,Events,Conditions,WindDirDegrees,DateUTC
12:54 AM,34.0,30.9,89,30.51,10.0,Calm,Calm,-,N/A,,Partly Cloudy,0,2013-01-10 05:54:00
1:54 AM,30.9,28.9,92,30.51,10.0,ESE,3.5,-,N/A,,Partly Cloudy,120,2013-01-10 06:54:00
2:54 AM,30.9,30.0,96,30.52,7.0,SE,4.6,-,N/A,,Partly Cloudy,140,2013-01-10 07:54:00
3:54 AM,30.9,30.0,96,30.52,8.0,Calm,Calm,-,N/A,,Clear,0,2013-01-10 08:54:00
4:54 AM,30.9,30.0,96,30.49,6.0,ENE,3.5,-,N/A,,Mostly Cloudy,60,2013-01-10 09:54:00
5:54 AM,32.0,30.0,92,30.49,9.0,ENE,4.6,-,N/A,,Overcast,60,2013-01-10 10:54:00
6:54 AM,32.0,30.0,92,30.48,9.0,ENE,4.6,-,N/A,,Overcast,70,2013-01-10 11:54:00
7:54 AM,33.1,28.9,85,30.48,10.0,ENE,6.9,-,N/A,,Overcast,70,2013-01-10 12:54:00
8:54 AM,35.1,28.0,76,30.47,10.0,East,8.1,-,N/A,,Overcast,90,2013-01-10 13:54:00
9:54 AM,37.0,27.0,67,30.45,10.0,East,8.1,-,N/A,,Overcast,80,2013-01-10 14:54:00
10:54 AM,37.9,28.0,68,30.44,10.0,East,9.2,-,N/A,,Overcast,90,2013-01-10 15:54:00
11:54 AM,39.0,28.9,67,30.41,10.0,East,10.4,-,N/A,,Overcast,90,2013-01-10 16:54:00
12:54 PM,39.0,28.9,67,30.37,10.0,East,11.5,-,0.00,Rain,Light Rain,100,2013-01-10 17:54:00
1:54 PM,39.0,30.9,73,30.31,10.0,East,12.7,-,0.00,Rain,Light Rain,100,2013-01-10 18:54:00
2:54 PM,39.9,33.1,77,30.28,10.0,ESE,16.1,-,0.00,,Overcast,110,2013-01-10 19:54:00
3:45 PM,39.2,33.8,81,30.25,5.0,ESE,13.8,-,0.00,Rain,Light Rain,110,2013-01-10 20:45:00
3:54 PM,39.0,34.0,82,30.27,5.0,ESE,13.8,23.0,0.00,Rain,Light Rain,110,2013-01-10 20:54:00
4:18 PM,37.4,35.6,93,30.24,2.5,East,13.8,-,0.02,Rain,Rain,100,2013-01-10 21:18:00
4:30 PM,37.4,35.6,93,30.23,6.0,East,10.4,-,0.05,Rain,Light Rain,100,2013-01-10 21:30:00
4:51 PM,39.2,37.4,93,30.22,2.0,ESE,11.5,-,0.05,Rain,Light Rain,110,2013-01-10 21:51:00
4:54 PM,39.0,37.0,93,30.25,4.0,ESE,11.5,-,0.07,Rain,Rain,110,2013-01-10 21:54:00
5:05 PM,39.2,37.4,93,30.21,7.0,ESE,12.7,-,0.00,Rain,Light Rain,110,2013-01-10 22:05:00
5:52 PM,39.2,37.4,93,30.19,10.0,ESE,15.0,-,0.01,,Overcast,110,2013-01-10 22:52:00
5:54 PM,39.9,37.0,89,30.21,10.0,ESE,15.0,-,0.01,Rain,Light Rain,110,2013-01-10 22:54:00
6:54 PM,39.9,37.9,93,30.18,9.0,ESE,12.7,-,0.01,,Overcast,110,2013-01-10 23:54:00
7:36 PM,39.2,39.2,100,30.13,7.0,ESE,12.7,-,N/A,,Overcast,120,2013-01-11 00:36:00
7:54 PM,41.0,39.0,93,30.14,7.0,ESE,15.0,-,N/A,,Overcast,110,2013-01-11 00:54:00
8:54 PM,42.1,41.0,96,30.11,5.0,ESE,15.0,-,0.00,,Overcast,120,2013-01-11 01:54:00
9:27 PM,42.8,41.0,93,30.07,7.0,ESE,15.0,-,N/A,,Overcast,120,2013-01-11 02:27:00
9:54 PM,43.0,41.0,93,30.09,8.0,SE,12.7,-,N/A,,Overcast,130,2013-01-11 02:54:00
10:54 PM,43.0,42.1,97,30.06,8.0,SE,9.2,-,N/A,,Overcast,130,2013-01-11 03:54:00
11:08 PM,42.8,42.8,100,30.04,8.0,SE,9.2,-,N/A,,Overcast,130,2013-01-11 04:08:00
11:36 PM,42.8,42.8,100,30.02,8.0,ESE,10.4,-,N/A,,Overcast,120,2013-01-11 04:36:00
11:54 PM,44.1,42.1,93,30.03,9.0,SE,11.5,-,N/A,,Overcast,130,2013-01-11 04:54:00